Regional Weather Roundup
Issued by NWS

Home | Current Version | Previous Version | Graphics & Text | Print | Product List | Glossary On
Versions: 1 2 3 4 5 6 7 8 9 10 11 12 13 14 15 16 17 18 19 20 21 22 23 24 25 26 27 28 29 30 31 32 33 34 35 36 37 38 39 40 41 42 43 44 45 46 47 48 49 50
000
ASUS44 KMEG 281900
RWRTN
TENNESSEE HOURLY STATE WEATHER ROUNDUP
NATIONAL WEATHER SERVICE MEMPHIS TN
200 PM CDT SAT MAR 28 2015

TNZ002-004-019-021-049-052-054-088>092-282000-
WEST TENNESSEE

CITY           SKY/WX    TMP DP  RH WIND       PRES   REMARKS
MEMPHIS INTL   CLOUDY    42  26  53 NE8       30.31F
NWS MEMPHIS      N/A     43 N/A N/A MISG        N/A
JACKSON        CLOUDY    44  23  43 CALM      30.30F
DYERSBURG      PTSUNNY   43  18  36 CALM      30.32F
UNION CITY     SUNNY     43  25  49 VRB6      30.30F
PARIS          SUNNY     41  18  38 N10       30.30F
LEXINGTON      SUNNY     46  12  25 N9        30.27F
SAVANNAH       SUNNY     43  18  36 VRB5      30.29F
$$

TNZ008-025-027-028-033-062-065-066-282000-
NORTH MIDDLE TENNESSEE

CITY           SKY/WX    TMP DP  RH WIND       PRES   REMARKS
NASHVILLE      MOSUNNY   47  12  24 N8        30.28S
CLARKSVILLE    SUNNY     42  16  34 NW7       30.30F
COOKEVILLE     SUNNY     43  18  36 NE13      30.22S
CROSSVILLE     SUNNY     41  10  28 N10       30.17S
$$

TNZ061-075-076-078-094-096-097-282000-
SOUTH MIDDLE TENNESSEE

CITY           SKY/WX    TMP DP  RH WIND       PRES   REMARKS
FAYETTEVILLE   SUNNY     43  14  31 N10       30.24F
TULLAHOMA      SUNNY     43  10  26 N7        30.24S
WINCHESTER     SUNNY     43  19  39 SW6       30.23F
COLUMBIA       SUNNY     43  18  36 VRB3      30.25F
SHELBYVILLE    SUNNY     45  16  31 NW8       30.26F
$$

TNZ017-018-042-046-047-282000-
NORTHEAST TENNESSEE

CITY           SKY/WX    TMP DP  RH WIND       PRES   REMARKS
TRI CITIES     MOSUNNY   39  14  36 NW16      30.13S WCI  30
ELIZABETHTON   PTCLDY    37  12  35 W8G17     30.12S WCI  31
$$

TNZ012-013-036-069-073-074-282000-
CENTRAL EAST TENNESSEE

CITY           SKY/WX    TMP DP  RH WIND       PRES   REMARKS
KNOXVILLE      MOSUNNY   44  14  29 N12G17    30.18F
OAK RIDGE      SUNNY     48  14  25 VRB3      30.19F
GATLINBURG     CLEAR     41  14  33 N9        30.17F
$$

TNZ083-085-099-282000-
SOUTHEAST TENNESSEE

CITY           SKY/WX    TMP DP  RH WIND       PRES   REMARKS
CHATTANOOGA    MOSUNNY   50  12  21 NW8       30.19F
$$

SKY/WX REPORTED AS FAIR MEANS FEW OR NO CLOUDS BELOW
12 THOUSAND FEET.



USA.gov is the U.S. government's official web portal to all federal, state and local government web resources and services.